THEOS

Last updated on Tue Oct 14 2025 00:02:29 GMT+0000 (Coordinated Universal Time)

1 33396U 08049A 25286.58088034 .00000084 00000+0 59508-4 0 9996 2 33396 98.5955 346.4181 0001092 88.6028 271.5274 14.20076866882969
UTC large
Height (km)
Speed (km/s)
/
Latitude / Longitude
Inclination (degrees)
Orbital Period (minutes)
Azimuth
Elevation
Range (km)
Doppler Factor

Next 0 passes for location: London (51.5072 / 0.1276)

Sorry there are no passes over London.